Estación Meteorológica Peña el Pijo (Robertgarden) [ 07/15/20 08:00:37 CEST ]

Fecha Hora Presion(HPa) Temp (°C) Humedad % Rocio (°C) Viento ( m/s) Direccion Lluvia 1Hora(mm) Lluvia 24H(mm) LLuvia Total(mm)
2020-Feb-24 01:09:17 1020.300 - - - - N     39.88
2020-Feb-24 02:10:18 1019.800 - - - - N     39.88
2020-Feb-24 03:09:41 1019.100 - - - - N     39.88
2020-Feb-24 04:10:43 1018.200 - - - - N     39.88
2020-Feb-24 05:09:32 1018.100 - - - - N     39.88
2020-Feb-24 06:09:01 1018.000 - - - - N     39.88
2020-Feb-24 07:09:20 1017.900 - - - - N     39.88
2020-Feb-24 08:09:17 1017.600 - - - - N     39.88
2020-Feb-24 09:09:14 1017.900 - - - - N     39.88
2020-Feb-24 10:09:38 1017.600 - - - - N     39.88
2020-Feb-24 11:08:50 1017.100 - - - - N     39.88
2020-Feb-24 12:09:26 1016.700 - - - - N     39.88
2020-Feb-24 13:08:48 1016.000 - - - - N     39.88
2020-Feb-24 14:08:56 1015.100 - - - - N     39.88
2020-Feb-24 15:09:14 1014.200 - - - - N     39.88
2020-Feb-24 16:09:09 1013.600 - - - - N     39.88
2020-Feb-24 17:08:57 1013.100 - - - - N     39.88
2020-Feb-24 18:09:05 1013.100 - - - - N     39.88
2020-Feb-24 19:09:09 1013.300 - - - - N     39.88
2020-Feb-24 20:09:23 1013.800 - - - - N     39.88
2020-Feb-24 21:09:27 1014.000 - - - - N     39.88
2020-Feb-24 22:09:00 1014.200 - - - - N     39.88
2020-Feb-24 23:09:11 1014.000 - - - - N     39.88

Temperatura Máxima:    Temperatura Mínima:
Presión Máxima:1020.300 Hpa    Presión Mínima:1013.100 Hpa


Volver